When you browse on this site, cookies collect data to enhance your experience and personalize the content and advertising you see.
Visit our Privacy Policy to learn more. By continuing to use the site, you agree to this use of cookies and data.
  • în România
  • Lista ţărilor
  • Pe 7 zile
  • Temperatura apei
  • Hartă satelitară
  • Meteo pe hartă
  • Widget-uri
  • user-avatar
    Intrare

    Meteo pe oră la Shahabad

    Astăzi, 25 Aprilie, Joi

    Timp Temperatura Precipitaţii Vânt Presiune Umiditate
    00:00 +34°C° 0 mm 1 m/s 741 mmHg 25%
    01:00 +34°C° 0 mm 2 m/s 740 mmHg 26%
    02:00 +34°C° 0 mm 2 m/s 740 mmHg 28%
    03:00 +32°C° 0 mm 2 m/s 740 mmHg 29%
    04:00 +32°C° 0 mm 2 m/s 740 mmHg 30%
    05:00 +29°C° 0 mm 0 m/s 741 mmHg 29%
    06:00 +33°C° 0 mm 1 m/s 741 mmHg 27%
    07:00 +35°C° 0 mm 1 m/s 742 mmHg 24%
    08:00 +38°C° 0 mm 2 m/s 742 mmHg 21%
    09:00 +40°C° 0 mm 2 m/s 742 mmHg 19%
    10:00 +41°C° 0 mm 2 m/s 742 mmHg 17%
    11:00 +44°C° 0 mm 3 m/s 742 mmHg 14%
    12:00 +45°C° 0 mm 3 m/s 741 mmHg 13%
    13:00 +47°C° 0 mm 4 m/s 740 mmHg 12%
    14:00 +48°C° 0 mm 5 m/s 740 mmHg 11%
    15:00 +48°C° 0 mm 4 m/s 739 mmHg 11%
    16:00 +47°C° 0 mm 4 m/s 739 mmHg 11%
    17:00 +47°C° 0 mm 4 m/s 738 mmHg 11%
    18:00 +44°C° 0 mm 3 m/s 738 mmHg 12%
    19:00 +42°C° 0 mm 2 m/s 738 mmHg 13%
    20:00 +40°C° 0 mm 1 m/s 738 mmHg 14%
    21:00 +39°C° 0 mm 1 m/s 738 mmHg 14%
    22:00 +39°C° 0 mm 2 m/s 739 mmHg 14%
    23:00 +38°C° 0 mm 2 m/s 739 mmHg 15%

    Mâine, 26 Aprilie, Vineri

    Timp Temperatura Precipitaţii Vânt Presiune Umiditate
    00:00 +37°C° 0 mm 2 m/s 738 mmHg 15%
    01:00 +36°C° 0 mm 2 m/s 738 mmHg 15%
    02:00 +36°C° 0 mm 2 m/s 737 mmHg 16%
    03:00 +35°C° 0 mm 2 m/s 738 mmHg 17%
    04:00 +34°C° 0 mm 2 m/s 738 mmHg 18%
    05:00 +32°C° 0 mm 1 m/s 738 mmHg 19%
    06:00 +35°C° 0 mm 2 m/s 738 mmHg 18%
    07:00 +37°C° 0 mm 2 m/s 739 mmHg 18%
    08:00 +38°C° 0 mm 2 m/s 739 mmHg 17%
    09:00 +40°C° 0 mm 2 m/s 740 mmHg 15%
    10:00 +43°C° 0 mm 1 m/s 740 mmHg 13%
    11:00 +45°C° 0 mm 1 m/s 740 mmHg 11%
    12:00 +46°C° 0 mm 2 m/s 739 mmHg 10%
    13:00 +47°C° 0 mm 3 m/s 738 mmHg 9%
    14:00 +49°C° 0 mm 4 m/s 738 mmHg 7%
    15:00 +48°C° 0 mm 4 m/s 737 mmHg 7%
    16:00 +48°C° 0 mm 4 m/s 737 mmHg 7%
    17:00 +48°C° 0 mm 4 m/s 736 mmHg 7%
    18:00 +45°C° 0 mm 4 m/s 737 mmHg 8%
    19:00 +43°C° 0 mm 3 m/s 737 mmHg 9%
    20:00 +40°C° 0 mm 2 m/s 738 mmHg 10%
    21:00 +40°C° 0 mm 3 m/s 738 mmHg 11%
    22:00 +39°C° 0 mm 3 m/s 738 mmHg 11%
    23:00 +38°C° 0 mm 3 m/s 738 mmHg 12%

    Poimâine, 27 Aprilie, Sâmbătă

    Timp Temperatura Precipitaţii Vânt Presiune Umiditate
    00:00 +37°C° 0 mm 3 m/s 738 mmHg 13%
    01:00 +36°C° 0 mm 3 m/s 738 mmHg 13%
    02:00 +35°C° 0 mm 3 m/s 737 mmHg 14%
    03:00 +35°C° 0 mm 3 m/s 738 mmHg 15%
    04:00 +34°C° 0 mm 3 m/s 738 mmHg 15%
    05:00 +32°C° 0 mm 2 m/s 738 mmHg 16%
    06:00 +36°C° 0 mm 3 m/s 738 mmHg 15%
    07:00 +38°C° 0 mm 3 m/s 739 mmHg 13%
    08:00 +40°C° 0 mm 3 m/s 740 mmHg 12%
    09:00 +43°C° 0 mm 5 m/s 740 mmHg 10%
    10:00 +46°C° 0 mm 6 m/s 740 mmHg 8%
    11:00 +49°C° 0 mm 8 m/s 740 mmHg 6%
    12:00 +49°C° 0 mm 8 m/s 739 mmHg 5%
    13:00 +50°C° 0 mm 8 m/s 738 mmHg 5%
    14:00 +50°C° 0 mm 8 m/s 737 mmHg 4%
    15:00 +50°C° 0 mm 8 m/s 737 mmHg 4%
    16:00 +49°C° 0 mm 7 m/s 736 mmHg 5%
    17:00 +49°C° 0 mm 7 m/s 736 mmHg 5%
    18:00 +46°C° 0 mm 6 m/s 736 mmHg 6%
    19:00 +43°C° 0 mm 5 m/s 737 mmHg 7%
    20:00 +41°C° 0 mm 4 m/s 737 mmHg 8%
    21:00 +41°C° 0 mm 4 m/s 737 mmHg 9%
    22:00 +40°C° 0 mm 4 m/s 737 mmHg 9%
    23:00 +38°C° 0 mm 4 m/s 737 mmHg 10%

    28 Aprilie, Duminică

    Timp Temperatura Precipitaţii Vânt Presiune Umiditate
    00:00 +37°C° 0 mm 4 m/s 737 mmHg 10%
    01:00 +37°C° 0 mm 4 m/s 736 mmHg 10%
    02:00 +36°C° 0 mm 4 m/s 736 mmHg 11%
    03:00 +35°C° 0 mm 4 m/s 736 mmHg 11%
    04:00 +35°C° 0 mm 3 m/s 736 mmHg 12%
    05:00 +34°C° 0 mm 3 m/s 736 mmHg 12%
    06:00 +36°C° 0 mm 3 m/s 737 mmHg 11%
    07:00 +38°C° 0 mm 4 m/s 738 mmHg 9%
    08:00 +41°C° 0 mm 4 m/s 739 mmHg 8%
    09:00 +43°C° 0 mm 5 m/s 739 mmHg 7%
    10:00 +46°C° 0 mm 6 m/s 739 mmHg 6%
    11:00 +49°C° 0 mm 7 m/s 739 mmHg 4%
    12:00 +50°C° 0 mm 7 m/s 738 mmHg 4%
    13:00 +50°C° 0 mm 7 m/s 737 mmHg 4%
    14:00 +51°C° 0 mm 7 m/s 736 mmHg 4%
    15:00 +50°C° 0 mm 7 m/s 736 mmHg 5%
    16:00 +49°C° 0 mm 6 m/s 736 mmHg 5%
    17:00 +48°C° 0 mm 6 m/s 735 mmHg 5%
    18:00 +46°C° 0 mm 5 m/s 736 mmHg 6%
    19:00 +43°C° 0 mm 4 m/s 736 mmHg 7%
    20:00 +41°C° 0 mm 4 m/s 737 mmHg 8%
    21:00 +40°C° 0 mm 3 m/s 737 mmHg 8%
    22:00 +39°C° 0 mm 3 m/s 737 mmHg 8%
    23:00 +38°C° 0 mm 3 m/s 737 mmHg 8%

    29 Aprilie, Luni

    Timp Temperatura Precipitaţii Vânt Presiune Umiditate
    00:00 +37°C° 0 mm 3 m/s 737 mmHg 8%
    01:00 +36°C° 0 mm 2 m/s 736 mmHg 8%
    02:00 +35°C° 0 mm 2 m/s 736 mmHg 8%
    03:00 +34°C° 0 mm 2 m/s 736 mmHg 8%
    04:00 +32°C° 0 mm 1 m/s 736 mmHg 8%
    05:00 +32°C° 0 mm 1 m/s 737 mmHg 8%
    06:00 +34°C° 0 mm 1 m/s 737 mmHg 7%
    07:00 +36°C° 0 mm 1 m/s 738 mmHg 7%
    08:00 +39°C° 0 mm 1 m/s 739 mmHg 6%
    09:00 +42°C° 0 mm 1 m/s 739 mmHg 6%
    10:00 +45°C° 0 mm 2 m/s 739 mmHg 5%
    11:00 +47°C° 0 mm 2 m/s 739 mmHg 5%
    12:00 +48°C° 0 mm 3 m/s 738 mmHg 5%
    13:00 +50°C° 0 mm 4 m/s 737 mmHg 5%
    14:00 +51°C° 0 mm 6 m/s 736 mmHg 4%
    15:00 +50°C° 0 mm 5 m/s 736 mmHg 5%
    16:00 +49°C° 0 mm 5 m/s 735 mmHg 5%
    17:00 +49°C° 0 mm 5 m/s 735 mmHg 5%
    18:00 +47°C° 0 mm 4 m/s 735 mmHg 6%
    19:00 +44°C° 0 mm 3 m/s 735 mmHg 6%
    20:00 +41°C° 0 mm 2 m/s 736 mmHg 7%
    21:00 +40°C° 0 mm 2 m/s 736 mmHg 7%
    22:00 +39°C° 0 mm 2 m/s 736 mmHg 8%
    23:00 +38°C° 0 mm 2 m/s 736 mmHg 8%

    30 Aprilie, Marţi

    Timp Temperatura Precipitaţii Vânt Presiune Umiditate
    00:00 +37°C° 0 mm 2 m/s 736 mmHg 9%
    01:00 +36°C° 0 mm 2 m/s 735 mmHg 9%
    02:00 +34°C° 0 mm 1 m/s 735 mmHg 9%
    03:00 +35°C° 0 mm 2 m/s 735 mmHg 9%
    04:00 +34°C° 0 mm 2 m/s 735 mmHg 9%
    05:00 +32°C° 0 mm 2 m/s 736 mmHg 9%
    06:00 +35°C° 0 mm 2 m/s 736 mmHg 9%
    07:00 +37°C° 0 mm 2 m/s 737 mmHg 8%
    08:00 +40°C° 0 mm 2 m/s 738 mmHg 8%
    09:00 +43°C° 0 mm 3 m/s 738 mmHg 7%
    10:00 +45°C° 0 mm 3 m/s 737 mmHg 6%
    11:00 +47°C° 0 mm 3 m/s 737 mmHg 6%
    12:00 +48°C° 0 mm 2 m/s 736 mmHg 5%
    13:00 +48°C° 0 mm 2 m/s 735 mmHg 5%
    14:00 +49°C° 0 mm 2 m/s 734 mmHg 4%
    15:00 +49°C° 0 mm 2 m/s 734 mmHg 4%
    16:00 +48°C° 0 mm 1 m/s 733 mmHg 4%
    17:00 +47°C° 0 mm 1 m/s 733 mmHg 4%
    18:00 +45°C° 0 mm 1 m/s 733 mmHg 4%
    19:00 +43°C° 0 mm 1 m/s 734 mmHg 5%
    20:00 +41°C° 0 mm 2 m/s 734 mmHg 6%
    21:00 +40°C° 0 mm 2 m/s 734 mmHg 6%
    22:00 +40°C° 0 mm 2 m/s 734 mmHg 6%
    23:00 +39°C° 0 mm 2 m/s 734 mmHg 6%
    Arată mai mult